Location: Unspecified
(0.0000°N, 0.0000°E)
Time: 18:57:19
(UTC+00:00)

A-11 Canister half - Pass Details

Date: 21 November 2019
Orbit: 1526 x 1683 km, 47.3° (Epoch: 08 December)

Event Time Altitude Azimuth Distance (km) Brightness Sun altitude
Rises 20:20:23 0° 314° (NW) 4,691 11.8 -35.9°
Reaches altitude 10° 20:23:28 10° 311° (NW) 3,698 11.2 -36.6°
Maximum altitude 20:32:39 66° 231° (SW) 1,636 9.1 -38.7°
Enters shadow 20:35:48 44° 167° (SSE) 1,999 9.5 -39.4°
Exits shadow 20:43:38 - 148° (SSE) 4,265 11.3 -41.1°
Sets 20:45:00 0° 146° (SSE) 4,703 11.5 -41.4°
